TimeCDT,TemperatureF,Dew PointF,Humidity,Sea Level PressureIn,VisibilityMPH,Wind Direction,Wind SpeedMPH,Gust SpeedMPH,PrecipitationIn,Events,Conditions,WindDirDegrees,DateUTC
12:49 AM,51.8,44.6,76,29.99,10.0,North,13.8,-,N/A,,Overcast,360,2013-06-02 05:49:00
12:52 AM,52.0,44.1,74,29.99,10.0,North,16.1,-,N/A,,Overcast,360,2013-06-02 05:52:00
1:52 AM,52.0,41.0,66,30.00,10.0,North,13.8,-,N/A,,Overcast,10,2013-06-02 06:52:00
2:52 AM,51.1,42.1,71,30.01,10.0,NNE,9.2,-,N/A,,Overcast,20,2013-06-02 07:52:00
3:52 AM,50.0,43.0,77,30.02,10.0,NNW,11.5,-,N/A,,Overcast,340,2013-06-02 08:52:00
4:52 AM,48.9,46.0,90,30.03,10.0,North,6.9,-,N/A,,Overcast,350,2013-06-02 09:52:00
5:03 AM,48.2,46.4,93,30.03,10.0,NNW,6.9,-,N/A,,Overcast,340,2013-06-02 10:03:00
5:27 AM,50.0,46.4,87,30.03,10.0,NNW,10.4,-,N/A,,Overcast,340,2013-06-02 10:27:00
5:52 AM,50.0,46.0,86,30.04,10.0,North,13.8,-,N/A,,Overcast,350,2013-06-02 10:52:00
6:09 AM,50.0,46.4,87,30.05,5.0,North,12.7,-,0.00,Rain,Light Rain,360,2013-06-02 11:09:00
6:15 AM,48.2,46.4,93,30.05,1.8,NNE,10.4,-,0.00,Rain,Light Rain,20,2013-06-02 11:15:00
6:23 AM,48.2,46.4,93,30.05,3.0,NNE,10.4,-,0.01,Rain,Light Rain,20,2013-06-02 11:23:00
6:52 AM,48.9,46.0,90,30.07,10.0,North,12.7,-,0.01,,Overcast,350,2013-06-02 11:52:00
7:52 AM,50.0,45.0,83,30.10,10.0,North,11.5,-,N/A,,Overcast,360,2013-06-02 12:52:00
7:59 AM,50.0,44.6,82,30.09,10.0,North,12.7,-,N/A,,Overcast,360,2013-06-02 12:59:00
8:52 AM,50.0,43.0,77,30.11,10.0,North,13.8,-,N/A,,Overcast,360,2013-06-02 13:52:00
9:52 AM,52.0,42.1,69,30.11,10.0,NNE,12.7,-,N/A,,Overcast,20,2013-06-02 14:52:00
10:52 AM,54.0,42.1,64,30.11,10.0,North,8.1,-,N/A,,Mostly Cloudy,360,2013-06-02 15:52:00
11:52 AM,57.9,42.1,56,30.10,10.0,North,10.4,-,N/A,,Scattered Clouds,10,2013-06-02 16:52:00
12:52 PM,61.0,43.0,52,30.09,10.0,NNE,10.4,-,N/A,,Partly Cloudy,30,2013-06-02 17:52:00
1:52 PM,62.1,42.1,48,30.08,10.0,NNE,4.6,17.3,N/A,,Clear,30,2013-06-02 18:52:00
2:52 PM,64.0,37.9,38,30.07,10.0,NNW,9.2,-,N/A,,Clear,330,2013-06-02 19:52:00
3:52 PM,64.9,39.9,40,30.05,10.0,Variable,3.5,-,N/A,,Clear,0,2013-06-02 20:52:00
4:52 PM,66.0,39.0,37,30.04,10.0,North,6.9,-,N/A,,Clear,360,2013-06-02 21:52:00
5:52 PM,66.9,36.0,32,30.02,10.0,WNW,5.8,-,N/A,,Clear,300,2013-06-02 22:52:00
6:52 PM,66.0,37.0,34,30.02,10.0,Calm,Calm,-,N/A,,Clear,0,2013-06-02 23:52:00
7:52 PM,63.0,37.0,38,30.01,10.0,SSE,3.5,-,N/A,,Clear,150,2013-06-03 00:52:00
8:52 PM,61.0,36.0,39,30.01,10.0,Calm,Calm,-,N/A,,Clear,0,2013-06-03 01:52:00
9:52 PM,59.0,41.0,51,30.02,10.0,South,3.5,-,N/A,,Clear,180,2013-06-03 02:52:00
10:52 PM,54.0,41.0,62,30.04,10.0,SSW,5.8,-,N/A,,Clear,210,2013-06-03 03:52:00
11:52 PM,48.9,42.1,77,30.04,10.0,NNE,8.1,-,N/A,,Clear,30,2013-06-03 04:52:00